Presure
233 226 203 182 173 172 155 159 164 167 167 162 160 158 157 157 160 160 157 143 154 153 152 151 148 144 145 147 146 175 131 144 141 148 148 150 153 147 156 148 158 157 135
218 247 197 205 178 142 178 164 156 160 161 162 154 160 160 155 144 153 158 166 161 160 175 150 155 159 155 163 148 149 151 158 154 151 156 155 140 158 151 153 158 160 154
172 206 185 206 175 177 186 180 173 159 164 162 164 168 163 163 166 164 144 153 157 159 160 158 163 163 158 155 146 140 140 143 142 150 152 160 160 150 161 161 155 154 153
172 223 235 223 203 163 170 190 184 156 168 159 156 134 166 167 165 164 164 161 172 169 162 161 162 171 162 146 162 159 160 159 157 150 158 144 153 168 159 156 161 158 165
175 170 242 254 219 202 180 155 175 188 181 177 171 159 162 166 168 173 166 172 168 172 160 155 166 162 165 160 154 152 150 150 152 155 168 146 159 146 164 155 157 160 165
194 173 210 252 231 163 153 183 177 159 153 170 178 174 171 170 167 166 164 172 143 169 170 177 179 169 176 156 164 161 178 161 161 159 165 152 161 163 165 159 148 166 171
182 190 176 169 208 223 188 187 181 174 174 155 171 181 178 163 170 169 173 175 172 154 152 179 159 172 191 165 163 170 165 168 156 171 149 167 143 168 153 172 169 174 161
206 197 183 178 173 171 187 208 195 138 177 169 160 162 168 166 167 183 161 165 179 177 167 167 170 185 160 180 178 161 166 169 164 172 171 174 166 144 173 173 163 158 167
213 209 197 191 186 177 172 175 206 199 190 178 178 166 155 166 166 160 163 171 170 175 181 181 175 172 178 180 176 155 154 166 169 171 171 172 167 164 162 176 161 174 175
219 213 206 151 186 183 183 182 180 204 200 199 191 182 173 175 173 175 177 179 178 177 175 177 173 171 171 168 163 165 141 179 157 172 165 153 168 177 158 173 165 164 164
227 220 214 212 197 192 187 186 185 182 119 174 172 178 182 184 185 185 165 170 171 176 180 182 174 182 188 183 181 179 174 179 176 175 183 179 168 166 176 153 161 157 171
249 237 223 221 214 210 195 188 182 184 185 184 181 189 179 177 177 179 181 184 185 190 190 184 179 180 183 177 174 182 180 181 182 182 185 182 183 185 153 171 184 172 168
261 248 248 241 225 219 215 214 201 194 193 191 193 193 191 191 196 192 190 190 189 187 188 184 179 176 182 189 187 188 187 185 187 185 185 182 158 181 184 167 170 180 182
260 276 264 253 246 246 238 228 225 223 219 207 201 198 194 195 196 193 194 219 207 203 204 203 198 189 175 194 192 197 201 201 200 196 189 182 183 186 190 189 190 189 191
268 270 264 260 264 282 264 256 250 249 250 250 248 240 225 213 211 210 208 204 201 204 205 196 191 187 183 185 183 183 194 195 195 194 198 195 194 194 192 194 159 197 177
246 253 256 268 277 260 283 260 261 261 266 267 267 267 276 273 274 268 264 247 225 208 205 204 203 202 202 204 202 199 200 223 271 251 210 209 204 205 247 233 251 249 236
267 270 267 261 268 273 276 284 287 292 272 260 312 322 335 344 326 328 299 298 292 281 268 308 293 279 239 210 228 221 264 274 290 267 254 248 265 243 286 261 243 252 260
277 278 273 268 277 287 267 280 278 291 281 281 285 295 293 297 321 328 354 348 340 325 318 341 339 309 336 357 337 352 362 347 304 302 314 291 274 289 246 269 266 252 241
268 269 268 270 271 295 277 281 289 290 291 314 312 282 289 336 343 303 308 313 329 352 335 320 294 279 272 279 285 278 272 303 324 269 309 287 258 233 267 257 255 255 251
266 275 266 301 264 265 279 280 279 306 305 277 268 325 326 348 360 349 347 394 326 298 335 329 319 310 307 306 329 327 277 303 261 263 285 255 264 266 248 251 247 235 237
294 291 282 285 279 272 285 287 290 288 286 285 293 335 328 328 325 348 350 333 327 326 320 316 336 296 298 300 290 290 271 272 270 275 259 257 266 257 248 235 238 242 243
280 278 272 264 277 262 258 273 278 279 281 281 308 305 307 335 352 366 331 320 308 303 300 301 300 300 308 298 283 266 298 269 278 252 270 248 250 249 252 253 249 230 233
273 282 283 268 259 270 263 257 264 276 279 286 295 292 317 312 321 333 305 299 289 280 317 283 299 314 298 279 276 267 254 256 269 269 263 253 258 249 239 235 233 237 237
272 268 266 267 256 263 272 269 254 267 274 266 284 276 290 288 311 321 285 286 306 299 290 299 281 296 286 271 280 273 254 254 248 243 241 241 229 238 234 235 235 250 255
263 262 262 267 266 260 259 264 268 260 269 271 276 276 282 275 278 272 263 288 296 293 288 282 286 301 269 281 265 252 262 251 249 247 239 236 235 234 233 242 244 258 239
258 259 252 251 256 249 274 274 260 258 262 277 276 273 262 268 271 277 250 251 264 261 266 266 277 252 255 268 251 259 258 252 237 239 235 232 231 239 239 243 249 238 242
Wind_Speed
99 103 98 92 82 82 74 78 84 83 81 75 74 72 72 72 73 72 69 61 65 67 67 65 63 64 64 65 60 66 59 61 63 64 65 63 62 59 68 65 71 73 66
92 97 95 100 89 73 93 82 81 78 79 78 73 75 74 74 71 73 71 75 71 70 74 66 68 70 68 68 59 61 62 64 67 67 69 66 62 70 69 69 74 78 74
80 87 86 98 83 88 97 95 93 77 81 82 84 84 78 79 82 78 64 68 66 67 69 69 72 70 67 65 63 62 62 64 64 67 68 73 71 69 78 80 74 74 76
81 91 96 101 97 82 87 95 100 80 89 80 78 67 85 82 78 78 77 73 82 77 71 71 68 74 68 62 68 67 69 70 67 65 70 65 72 84 78 78 83 78 90
83 85 91 95 105 96 95 75 91 103 102 101 97 81 79 86 89 94 82 91 82 82 69 67 71 70 71 69 66 67 67 66 68 67 79 68 79 70 90 79 85 91 97
86 89 91 97 103 80 76 96 95 81 76 90 103 100 97 92 84 81 78 90 65 83 85 88 89 75 82 65 73 72 87 75 77 76 83 70 83 88 91 87 78 96 100
85 90 87 85 95 103 89 93 93 90 93 78 90 104 105 82 92 91 96 95 88 71 68 97 68 81 94 74 75 81 77 83 74 89 68 88 73 91 79 97 94 99 90
92 90 89 89 85 81 85 94 94 65 94 91 82 87 94 90 91 103 83 85 102 99 88 85 84 97 73 95 91 71 79 83 78 91 91 95 90 71 97 98 86 85 98
93 93 92 90 88 84 86 89 98 96 98 97 98 91 84 90 93 85 84 92 92 98 101 98 93 89 96 96 91 71 74 83 88 93 92 96 91 86 85 104 87 103 105
93 94 93 71 88 88 90 89 88 99 99 101 100 98 95 97 99 103 102 103 99 99 100 97 91 89 89 87 81 86 72 103 81 98 89 77 93 103 86 101 94 92 94
91 93 93 95 91 92 91 91 91 92 52 89 90 94 100 101 104 108 92 96 95 99 104 106 95 102 107 104 102 102 100 103 103 100 107 107 96 95 106 81 92 87 101
83 89 93 94 95 95 92 92 91 94 95 95 94 100 99 100 101 103 106 106 106 108 108 105 101 101 103 100 98 107 105 105 106 105 109 111 110 113 82 102 114 102 99
76 82 84 89 94 95 97 98 99 98 99 99 100 101 103 105 109 109 109 108 108 104 103 103 99 96 99 108 108 111 111 110 110 109 110 108 87 111 110 101 103 112 114
68 65 75 83 87 90 94 98 99 100 101 104 104 106 105 107 107 106 108 119 116 115 115 115 112 106 99 112 109 113 118 118 117 116 110 107 110 113 114 114 117 116 118
57 60 66 72 75 67 84 90 94 96 97 99 101 105 110 112 113 113 112 111 109 110 111 110 109 108 109 109 104 102 112 114 113 113 115 116 115 116 116 116 83 120 102
69 68 70 65 59 75 62 84 86 88 89 93 96 98 99 102 103 105 106 109 114 116 115 115 114 114 116 117 114 112 111 114 93 102 116 116 117 119 97 99 85 83 93
57 57 62 67 65 64 64 63 64 65 81 89 73 74 75 76 85 88 99 97 96 93 94 107 104 93 106 116 113 107 91 94 99 88 85 89 94 90 78 79 83 79 71
48 49 55 59 57 55 66 63 66 62 69 72 73 73 79 81 79 81 75 81 84 87 86 75 76 80 78 76 81 72 69 77 84 81 72 75 71 62 70 69 65 69 74
52 53 55 56 55 48 56 56 54 56 59 54 57 71 71 60 60 76 76 75 72 66 72 74 79 80 80 81 78 74 71 60 47 70 51 51 67 64 58 58 63 64 67
54 49 54 42 54 55 49 51 52 40 42 61 67 44 46 44 49 51 53 44 59 67 58 59 61 62 61 60 47 48 62 44 63 61 45 65 60 53 65 58 64 72 72
43 46 42 40 41 45 38 37 37 40 46 51 48 37 34 40 44 42 43 43 44 45 47 49 43 55 53 49 52 51 55 52 50 48 55 55 50 54 60 66 66 68 64
40 40 42 44 38 45 49 39 37 38 39 42 32 31 33 33 27 26 35 37 39 40 41 42 42 43 41 39 46 53 36 44 43 55 46 55 58 59 58 57 58 65 68
37 35 35 41 43 38 40 42 41 36 34 34 26 28 27 28 26 29 35 36 36 40 31 41 33 33 33 43 43 45 51 51 47 46 46 47 45 48 54 59 62 66 67
31 31 33 35 39 36 35 36 41 36 32 34 27 29 23 25 22 26 34 35 34 35 36 32 37 38 40 44 39 39 47 43 46 51 51 49 59 53 57 60 62 62 60
31 32 32 32 31 32 33 34 35 37 32 33 30 25 22 28 25 29 34 28 28 33 34 34 38 37 40 41 40 43 41 44 48 45 49 52 53 56 57 58 57 50 52
28 29 31 33 32 35 31 35 35 36 34 30 29 28 32 25 24 25 37 36 32 34 32 31 28 40 41 34 43 40 40 39 48 47 50 54 55 54 54 54 49 51 50
Wind_Direction
221 221 224 227 229 230 235 236 240 242 243 242 244 245 247 250 253 253 254 255 254 256 258 261 262 263 264 267 273 276 276 280 280 283 285 289 296 292 303 293 303 304 293
221 219 225 224 225 236 230 233 240 241 243 245 246 246 247 248 251 253 252 255 255 256 265 260 261 263 264 271 273 275 279 284 285 285 290 293 286 301 296 299 303 303 302
225 223 227 225 228 226 228 231 236 243 244 246 248 248 247 249 253 255 255 257 258 260 260 262 264 266 269 272 271 272 274 276 278 285 287 293 298 293 298 301 300 300 299
225 223 223 223 226 229 231 229 232 241 241 247 250 250 253 254 258 257 257 259 264 263 263 263 267 273 272 278 278 278 284 282 284 283 291 285 294 298 298 298 301 299 304
225 229 223 222 225 225 228 237 233 232 236 239 245 252 255 254 256 257 259 262 263 267 262 264 268 270 273 273 272 273 274 279 282 285 289 285 296 288 300 299 301 302 302
224 228 225 220 221 235 238 230 232 242 247 242 243 246 251 254 258 262 263 264 258 267 269 270 273 272 274 273 279 279 279 283 286 287 291 289 293 295 295 295 292 296 300
227 227 232 234 227 225 233 230 234 237 240 249 247 245 249 260 259 261 263 265 267 263 265 270 271 273 276 277 279 280 281 283 282 285 280 291 283 291 290 294 296 299 300
226 229 231 234 236 238 236 233 234 235 239 245 251 253 254 257 258 256 263 267 265 267 269 270 274 274 276 277 278 279 282 282 283 284 287 288 290 282 292 294 296 298 300
226 229 233 232 235 236 237 238 234 235 237 241 243 250 255 255 258 262 264 262 265 267 267 270 272 274 275 278 279 273 272 286 284 287 288 289 289 292 293 293 296 297 297
225 229 231 235 235 235 238 239 240 237 238 239 242 246 252 253 255 257 258 260 263 265 269 272 273 275 276 278 278 277 271 280 280 283 287 285 288 289 291 291 294 295 296
225 229 231 233 235 234 236 239 240 242 249 243 246 247 249 250 251 253 261 261 262 263 265 266 269 270 271 273 275 276 278 279 280 282 283 283 285 287 289 291 292 296 295
226 227 231 233 235 237 237 239 242 244 244 244 244 245 248 250 252 254 256 257 258 259 261 263 266 267 269 271 273 274 275 277 279 280 281 281 284 285 289 289 290 292 295
229 230 232 232 234 237 238 237 237 241 244 246 248 248 247 249 250 252 254 257 259 262 263 265 267 270 270 270 271 273 274 275 276 278 278 280 283 282 285 287 290 290 291
230 233 233 235 237 238 238 240 242 240 240 241 244 247 250 251 252 253 255 252 256 258 260 261 264 266 268 268 270 271 272 274 275 277 279 279 281 282 285 286 287 289 290
230 232 233 234 235 237 240 242 243 244 245 245 245 245 245 247 250 253 255 257 259 259 260 262 264 265 266 268 270 272 272 273 274 276 276 278 280 281 283 285 291 287 291
229 230 232 233 235 237 238 241 244 245 245 247 248 249 251 252 253 255 256 254 253 258 260 261 262 263 264 265 267 269 270 270 272 270 276 277 278 280 282 281 284 285 287
229 231 232 234 235 237 240 242 243 244 247 250 247 250 251 253 254 256 257 259 259 260 260 263 262 261 258 263 267 268 269 276 275 270 271 274 279 278 282 280 281 286 284
238 238 237 239 241 243 243 245 246 249 250 251 251 251 252 254 254 255 258 257 258 260 261 259 259 259 265 264 265 268 270 271 272 273 274 275 274 276 280 278 277 281 285
238 239 240 242 245 249 248 249 251 251 252 257 257 255 256 259 259 257 258 258 258 258 259 260 261 262 263 265 267 267 269 269 269 272 270 273 277 281 272 275 278 278 282
239 244 245 247 248 250 249 249 250 256 259 255 256 263 263 266 259 258 258 263 255 257 257 260 261 262 263 266 269 265 268 262 270 272 270 273 275 271 275 276 277 284 286
241 242 243 243 244 247 248 252 257 257 258 259 262 268 265 268 262 257 259 252 249 249 253 257 253 259 260 260 265 266 266 264 263 262 267 270 264 268 275 281 282 283 287
237 236 240 244 238 247 251 253 259 257 261 263 269 267 273 268 259 247 247 245 244 248 251 252 254 254 250 246 257 263 255 257 255 267 259 270 271 273 275 276 279 285 287
237 235 228 241 247 241 247 255 259 263 267 268 261 268 270 266 255 238 245 244 245 249 233 251 244 233 229 249 254 257 260 258 255 259 261 267 269 272 276 281 283 285 290
233 233 236 241 245 249 254 254 254 261 265 263 254 258 259 261 264 234 242 243 232 228 237 230 242 236 232 245 240 246 257 257 261 264 266 269 274 276 278 281 285 290 293
240 243 247 250 251 249 254 254 248 255 259 261 250 245 247 246 242 241 243 240 234 226 229 234 239 231 245 243 244 253 252 251 256 262 267 271 274 275 280 285 289 288 290
253 252 246 246 249 249 263 259 250 251 255 252 242 236 238 233 237 241 240 241 239 241 236 236 231 243 245 233 244 244 243 255 262 264 268 271 275 280 284 287 286 287 292